TimePST,TemperatureF,Dew PointF,Humidity,Sea Level PressureIn,VisibilityMPH,Wind Direction,Wind SpeedMPH,Gust SpeedMPH,PrecipitationIn,Events,Conditions,WindDirDegrees,DateUTC
12:53 AM,36.0,36.0,100,29.92,10.0,Calm,Calm,-,N/A,,Overcast,0,2012-11-08 08:53:00
1:53 AM,36.0,36.0,100,29.90,8.0,Calm,Calm,-,N/A,,Scattered Clouds,0,2012-11-08 09:53:00
2:22 AM,32.0,32.0,100,29.88,2.0,SW,3.5,-,N/A,,Partly Cloudy,230,2012-11-08 10:22:00
2:25 AM,32.0,30.2,93,29.88,1.0,WSW,3.5,-,N/A,,Mist,240,2012-11-08 10:25:00
2:32 AM,33.8,33.8,100,29.88,0.8,Calm,Calm,-,N/A,,Mist,0,2012-11-08 10:32:00
2:35 AM,35.6,33.8,93,29.88,1.5,Calm,Calm,-,N/A,,Partly Cloudy,0,2012-11-08 10:35:00
2:37 AM,35.6,35.6,100,29.87,3.0,Calm,Calm,-,N/A,,Partly Cloudy,0,2012-11-08 10:37:00
2:53 AM,34.0,33.1,96,29.88,6.0,Calm,Calm,-,N/A,,Scattered Clouds,0,2012-11-08 10:53:00
3:03 AM,33.8,33.8,100,29.87,4.0,Calm,Calm,-,N/A,,Mostly Cloudy,0,2012-11-08 11:03:00
3:24 AM,33.8,33.8,100,29.86,1.5,Calm,Calm,-,N/A,,Overcast,0,2012-11-08 11:24:00
3:35 AM,33.8,33.8,100,29.85,2.0,Calm,Calm,-,N/A,,Scattered Clouds,0,2012-11-08 11:35:00
3:43 AM,32.0,32.0,100,29.85,1.0,Calm,Calm,-,N/A,,Mist,0,2012-11-08 11:43:00
3:50 AM,33.8,33.8,100,29.85,0.5,Calm,Calm,-,N/A,Fog,Fog,0,2012-11-08 11:50:00
3:53 AM,33.1,33.1,100,29.86,0.5,Calm,Calm,-,N/A,Fog,Fog,0,2012-11-08 11:53:00
4:53 AM,33.1,33.1,100,29.86,0.2,Calm,Calm,-,N/A,Fog,Fog,0,2012-11-08 12:53:00
5:25 AM,33.8,33.8,100,29.85,0.5,Calm,Calm,-,N/A,Fog,Fog,0,2012-11-08 13:25:00
5:39 AM,33.8,33.8,100,29.84,2.0,Calm,Calm,-,N/A,,Overcast,0,2012-11-08 13:39:00
5:53 AM,34.0,34.0,100,29.86,2.0,Calm,Calm,-,N/A,,Overcast,0,2012-11-08 13:53:00
5:58 AM,33.8,33.8,100,29.84,1.0,Calm,Calm,-,N/A,,Overcast,0,2012-11-08 13:58:00
6:07 AM,33.8,33.8,100,29.84,0.5,Calm,Calm,-,N/A,Fog,Fog,0,2012-11-08 14:07:00
6:21 AM,32.0,32.0,100,29.83,1.2,Calm,Calm,-,N/A,,Scattered Clouds,0,2012-11-08 14:21:00
6:34 AM,32.0,30.2,93,29.83,1.0,Calm,Calm,-,N/A,,Mist,0,2012-11-08 14:34:00
6:51 AM,30.2,30.2,100,29.83,3.0,Calm,Calm,-,N/A,,Mostly Cloudy,0,2012-11-08 14:51:00
6:53 AM,30.9,30.9,100,29.84,4.0,Calm,Calm,-,N/A,,Mostly Cloudy,0,2012-11-08 14:53:00
7:53 AM,35.1,35.1,100,29.84,10.0,Calm,Calm,-,N/A,,Overcast,0,2012-11-08 15:53:00
8:24 AM,37.4,37.4,100,29.82,1.5,Calm,Calm,-,N/A,,Overcast,0,2012-11-08 16:24:00
8:32 AM,37.4,37.4,100,29.82,0.2,Calm,Calm,-,N/A,Fog,Fog,0,2012-11-08 16:32:00
8:53 AM,37.0,37.0,100,29.84,0.2,Calm,Calm,-,N/A,Fog,Fog,0,2012-11-08 16:53:00
9:53 AM,37.9,37.9,100,29.83,0.5,Calm,Calm,-,N/A,Fog,Fog,0,2012-11-08 17:53:00
10:34 AM,39.2,39.2,100,29.81,1.5,Calm,Calm,-,N/A,,Overcast,0,2012-11-08 18:34:00
10:42 AM,39.2,39.2,100,29.81,3.0,ESE,3.5,-,N/A,,Overcast,110,2012-11-08 18:42:00
10:53 AM,39.9,39.0,97,29.83,5.0,Calm,Calm,-,N/A,,Overcast,0,2012-11-08 18:53:00
11:32 AM,42.8,41.0,93,29.80,10.0,Variable,4.6,-,N/A,,Overcast,0,2012-11-08 19:32:00
11:51 AM,44.6,39.2,81,29.80,10.0,SSE,3.5,-,N/A,,Scattered Clouds,150,2012-11-08 19:51:00
11:53 AM,45.0,39.9,82,29.81,10.0,Calm,Calm,-,N/A,,Scattered Clouds,0,2012-11-08 19:53:00
12:53 PM,54.0,39.0,57,29.80,-9999.0,East,6.9,-,N/A,,Clear,100,2012-11-08 20:53:00
1:53 PM,51.1,32.0,48,29.80,10.0,NE,9.2,17.3,N/A,,Clear,50,2012-11-08 21:53:00
2:53 PM,50.0,34.0,54,29.80,10.0,NNE,8.1,-,N/A,,Clear,30,2012-11-08 22:53:00
3:53 PM,46.0,34.0,63,29.81,10.0,North,3.5,-,N/A,,Clear,360,2012-11-08 23:53:00
4:53 PM,42.1,36.0,79,29.81,10.0,Calm,Calm,-,N/A,,Clear,0,2012-11-09 00:53:00
5:53 PM,34.0,34.0,100,29.82,10.0,SSW,3.5,-,N/A,,Clear,210,2012-11-09 01:53:00
6:53 PM,33.1,33.1,100,29.83,10.0,Calm,Calm,-,N/A,,Clear,0,2012-11-09 02:53:00
7:53 PM,34.0,33.1,96,29.83,10.0,Calm,Calm,-,N/A,,Clear,0,2012-11-09 03:53:00
8:53 PM,33.1,32.0,96,29.84,10.0,NW,3.5,-,N/A,,Clear,320,2012-11-09 04:53:00
9:53 PM,28.9,28.0,96,29.84,10.0,SSW,4.6,-,N/A,,Partly Cloudy,210,2012-11-09 05:53:00
10:53 PM,30.0,28.9,96,29.84,10.0,Calm,Calm,-,N/A,,Clear,0,2012-11-09 06:53:00
11:53 PM,28.0,27.0,96,29.85,10.0,Calm,Calm,-,N/A,,Clear,0,2012-11-09 07:53:00